Location: Bernadets
(43.3537°N, 0.3167°E)
Time: 00:41:55
(UTC+00:00)

Cosmos 2322 - Pass Details

Date: 24 October 2021
Orbit: 841 x 854 km, 71.0° (Epoch: 27 November)

Event Time Altitude Azimuth Distance (km) Brightness Sun altitude
Rises 18:42:09 0° 178° (S) 3,405 6.8 -19.0°
Reaches altitude 10° 18:44:45 10° 170° (S) 2,475 6.0 -19.4°
Enters shadow 18:49:26 36° 116° (ESE) 1,327 4.2 -20.3°
